This is the latest recevied weather packets stored in our database for station/object EA3RCF. If no packets are shown the sender has not sent any weather packets the latest 1 day(s).
| Time | Temp. | Humidity | Pressure | Rain* | Wind** | Luminosity | Snow |
|---|---|---|---|---|---|---|---|
| 1777988010 | 16.67° C | 73% | 1010.7 hPa | 0 mm | 2.24 m/s, 89° | - | - |
| 1777987717 | 16.11° C | 74% | 1010.6 hPa | 0 mm | 1.34 m/s, 321° | - | - |
| 1777987398 | 16.11° C | 76% | 1010.5 hPa | 0 mm | 0.89 m/s, 30° | - | - |
| 1777987100 | 16.11° C | 78% | 1010.5 hPa | 0 mm | 1.79 m/s, 86° | - | - |
| 1777986808 | 16.11° C | 79% | 1010.4 hPa | 0 mm | 3.13 m/s, 136° | - | - |
| 1777986509 | 16.11° C | 80% | 1010.5 hPa | 0 mm | 3.13 m/s, 126° | - | - |
| 1777986218 | 16.11° C | 79% | 1010.5 hPa | 0 mm | 4.02 m/s, 105° | - | - |
| 1777985897 | 16.67° C | 78% | 1010.6 hPa | 0 mm | 3.58 m/s, 98° | - | - |
| 1777985599 | 16.67° C | 76% | 1010.5 hPa | 0 mm | 3.13 m/s, 77° | - | - |
| 1777985307 | 17.22° C | 73% | 1010.7 hPa | 0 mm | 3.58 m/s, 122° | - | - |
| 1777985009 | 17.78° C | 70% | 1010.6 hPa | 0 mm | 2.24 m/s, 44° | - | - |
| 1777984716 | 18.33° C | 69% | 1010.7 hPa | 0 mm | 2.68 m/s, 79° | - | - |
| 1777984398 | 18.89° C | 69% | 1010.6 hPa | 0 mm | 1.79 m/s, 83° | - | - |
| 1777984100 | 18.33° C | 68% | 1010.6 hPa | 0 mm | 3.13 m/s, 77° | - | - |
| 1777983807 | 18.33° C | 71% | 1010.7 hPa | 0 mm | 2.24 m/s, 148° | - | - |
| 1777983508 | 17.78° C | 76% | 1010.7 hPa | 0 mm | 1.34 m/s, 305° | - | - |
| 1777983217 | 17.22° C | 77% | 1010.8 hPa | 0 mm | 2.24 m/s, 356° | - | - |
| 1777982898 | 17.22° C | 77% | 1010.8 hPa | 0 mm | 2.24 m/s, 125° | - | - |
| 1777982598 | 17.22° C | 75% | 1010.8 hPa | 0 mm | 2.68 m/s, 30° | - | - |
| 1777982303 | 17.78° C | 75% | 1010.8 hPa | 0 mm | 3.58 m/s, 101° | - | - |
| 1777982005 | 17.78° C | 71% | 1010.9 hPa | 0 mm | 3.13 m/s, 84° | - | - |
| 1777981714 | 17.78° C | 72% | 1010.8 hPa | 0 mm | 3.58 m/s, 81° | - | - |
| 1777981395 | 17.78° C | 72% | 1011 hPa | 0 mm | 2.68 m/s, 98° | - | - |
| 1777981095 | 17.78° C | 72% | 1011 hPa | 0 mm | 2.24 m/s, 58° | - | - |
| 1777980802 | 17.78° C | 73% | 1011 hPa | 0 mm | 2.24 m/s, 56° | - | - |
* Rain latest hour (hover to see other rain measurements)
** Current wind speed in m/s (hover to see current wind gust speed)